Showing default

BRO-15, 60553

Orbit data source: Space-Track

BRO-15, 60553 is a payload satellite owned by Unseen Labs (FR) in SSO that was launched on Fri, 16 Aug 2024 UTC via an FALCON 9 launch vehicle from the Air Force Western Test Range (AFWTR). Payload-class satellites include a variety of spacecraft equipped with specific instruments for various scientific and technological missions. These include communications satellites like Starlink; space stations such as the ISS; scientific satellites like the Hubble; Earth observation satellites from companies like Planet Labs, Umbra, and HawkEye 360; GPS; miniature CubeSats for education and research; and military/defense satellites.

Loading next visibility...
Identifier
60553, 2024-149CP
Orbit
SSO
Country
Flag of FRFR
Related business
Manufacturer
GOMSpace
Mission
Operational Commercial Sigint
Bus & Motor
CUBESAT 8U, Unknown motor
Mass
15 kg wet, ~15 kg dry
Launch date (UTC)
2024-08-16 (2 years ago)
Launch vehicle
FALCON 9
Launch site
Air Force Western Test Range (AFWTR)
Object type
Payload
Rocket body
Debris
Shape & HBR
Box, 0.2 m
Radar Cross Section
0.100 m², Medium (>0.1 m² and < 1m²)

Expand to show TLE details & history
Last TLE update: 8 hours ago

TLE from 8 hours ago
0 BRO-15
1 60553U 24149CP  26126.17571820  .00001081  00000-0  10128-3 0  9992
2 60553  97.6812 202.3500 0006929 219.3098 140.7621 14.96062652 93727
Epoch: 2026-05-06T04:13Z
TLE epoch observation values (Epoch: 2026-05-06T04:13:02.052Z)
Latitude
-0.00003°
Longitude
-84.94852°
Altitude
585.862 km
Speed
7.565 km/s
True Right ascension
13h 29m 24s
True Declination
0° 00' 00"
Sunlit
Object was in full shadow at epoch
Visualization orbit readout
Latitude
Unknown
Longitude
Unknown
Altitude
Unknown
Speed
Unknown
Apparent Right ascension
Unknown
Apparent Declination
Unknown
Sunlit
N/A
Visualization observer readout
Local Sidereal Time
20:06:49
Azimuth
Unknown
Elevation
Unknown
Doppler factor
Unknown
Orbital elements
Apogee altitude
580.905 km
Perigee altitude
571.267 km
Semi-major axis
6,954.223 km
Eccentricity
0.00069
Inclination
97.6812°
RAAN
202.35°
Arg. of periapsis
219.3098°
True anomaly
140.81229°
Mean anomaly
140.7621°
Eccentric anomaly
140.7872°
Mean motion
3.74257 °/min
Orbital period
96.19 mins
BSTAR
0.00010128
Loading maneuver chart data...
Computing Atmospheric mass density...
Loading historical data...
Loading historical data...
Loading historical data...
Loading historical data...
Loading historical data...
Loading historical data...
Loading historical data...

Documentation

Showing up to 5 results
|